Flag for Germany Weather past 2 weeks in Kiel, Schleswig-Holstein, Germany

Now
43 °F

Scattered clouds.


Feels Like: 35 °F
Forecast: 34 / 43 °F
Wind: 15 mph from Southwest

Location: Kiel / Holtenau Civilian

Current Time: Feb 28, 2015 at 2:30:26 PM

Latest Report: Feb 28, 2015 at 1:50 PM


Visibility: N/A

Pressure: 29.98 "Hg

Humidity: 61%

Dew point: 30 °F

Location of KielLocation

Historic Weather in Kiel — Graph

°F

Kiel temperature yesterday

Maximum temperature yesterday: 39 °F (at 11:20 AM)
Minimum temperature yesterday: 36 °F (at 8:20 AM)
Average temperature yesterday: 38 °F

Past Weeks' High & Low Weather Summary

 TemperatureHumidityPressure
High45 °F (Feb 18, 3:20 PM)100% (Feb 14, 8:20 AM)30.63 "Hg (Feb 14, 8:20 AM)
Low28 °F (Feb 17, 7:50 AM)53% (Feb 19, 2:20 PM)29.21 "Hg (Feb 21, 10:50 AM)
Average38 °F84%29.91 "Hg
* Reported Feb 13 1:20 PM — Feb 28 1:20 PM, Kiel, Weather by CustomWeather, © 2015

Note: Actual official high and low records may vary slightly from our data, if they occured in-between our weather recording intervals... More about our weather records

Advertising

Kiel weather history for previous 24 hours

 ConditionsComfort  
Time TempWeatherWind HumidityBarometerVisibility
1:20 PM
Sat, Feb 28
41 °FPassing clouds.14 mph66%29.98 "HgN/A
12:50 PM41 °FPassing clouds.14 mph70%30.01 "HgN/A
12:20 PM41 °FPassing clouds.14 mph70%30.01 "HgN/A
11:50 AM39 °FPassing clouds.12 mph75%30.01 "HgN/A
11:20 AM39 °FPassing clouds.13 mph75%30.01 "HgN/A
10:50 AM39 °FPassing clouds.9 mph75%30.04 "HgN/A
10:20 AM37 °FPassing clouds.8 mph81%30.04 "HgN/A
9:50 AM36 °FPartly sunny.8 mph87%30.04 "HgN/A
9:20 AM36 °FPartly sunny.7 mph87%30.04 "HgN/A
8:50 AM34 °FPartly sunny.8 mph93%30.04 "HgN/A
8:20 AM34 °FPartly sunny.7 mph93%30.04 "HgN/A
4:20 PM
Fri, Feb 27
39 °FOvercast.6 mph93%29.92 "HgN/A
3:50 PM39 °FMostly cloudy.8 mph93%29.89 "HgN/A
3:20 PM39 °FMore clouds than sun.9 mph93%29.89 "HgN/A
2:50 PM39 °FLow clouds.12 mph93%29.89 "HgN/A
2:20 PM39 °FFog.13 mph93%29.86 "Hg3 mi
Weather by CustomWeather, © 2015

See weather overviewHow to use our weather pages